Погода в Каламбаке

Греция     39°42′19″N   21°37′30″E
темп.,
°C
ветер,
м/с
пор.,
м/с
влажн.,
%
обл.,
%
осадки,
мм/ч
давл.,
гПа
погр.,
м
18 апреля, вс
вс1800:00+8ююв1294100 0.0 1012102
03:00+8юв2297100 0.0 1012140
06:00+8юв2297100 0.0 1012141
09:00+9ююв229498 0.0 1013222
12:00+14ю327324 0.0 1012716
15:00+18ю3457100 0.2 1011951
18:00+17ююв3357100 0.1 10101063
21:00+12в227624 0.3 101218
19 апреля, пн
пн1900:00+10ю01834 0.1 101410
03:00+9ссз22832 0.1 101313
06:00+7с22825 0.0 101218
09:00+11зсз11695 0.0 1012236
12:00+15ю2349100 0.3 10101391
15:00+15юз4546100 1.4 10081963
18:00+14зюз674747 0.1 10081856
21:00+9ссз356054 0.1 101076
20 апреля, вт
вт2000:00+7ссз3374100 0.0 101147
03:00+6ссз22775 0.0 101223
06:00+5ссз33794 0.0 101345
09:00+9ссз35680 0.0 1014349
12:00+13ссз23524 0.0 10141239
15:00+16юз363982 0.1 10132425
18:00+15з564446 0.1 10132059
21:00+9ссз33601 0.1 101625
21 апреля, ср
ср2100:00+7ссз34720 0.0 101848
03:00+5ссз34760 0.0 101949
06:00+5ссз34793 0.0 101952
09:00+9ссз346517 0.0 1019244
12:00+14зсз124554 0.0 1019959
15:00+17ююз234129 0.0 10171956
18:00+17зюз234246 0.0 10171989
21:00+11с226012 0.1 101919
22 апреля, чт
чт2200:00+9с32665 0.0 102022
03:00+7ссз327222 0.0 102126
06:00+6с33755 0.0 102127
09:00+11ссз22644 0.0 1021217
12:00+16ююз213820 0.0 10211027
15:00+18ю323584 0.0 10201319
18:00+17ю224187 0.0 1019755
21:00+12в11515 0.0 101910